KAITUO 1A

Last updated on Wed Nov 13 2024 00:03:00 GMT+0000 (Coordinated Universal Time)

1 40904U 15049F 24317.59573385 .11430338 26210-5 54056-3 0 9990 2 40904 97.4362 343.1380 0008343 251.4010 108.6384 16.42435648507648

Satellite not in orbit

KAITUO 1A